User: anonymous   Login
Location: Unspecified
(0.0000°N, 0.0000°E)
Time: 16:32:34
(UTC+00:00)
Language:

DELFI C3 - Orbit

View from above orbital plane
View from above orbital plane
View from above satellite
View from above satellite

Ground track
Ground track

The orbit data is extracted from the following two-line orbital elements,

1 32789U 08021G   17204.92692245 +.00000883 +00000-0 +66506-4 0  9999
2 32789 097.5562 262.3813 0012139 343.5490 016.5341 15.04973581502295
Epoch (UTC): 23 July 2017 22:14:46
Eccentricity: 0.0012139
inclination: 97.5562°
perigee height: 543 km
apogee height: 560 km
right ascension of ascending node: 262.3813°
argument of perigee: 343.5490°
revolutions per day: 15.04973581
mean anomaly at epoch: 16.5341°
orbit number at epoch: 50229

The dashed part of the orbit path shows where the satellite is in the earth's shadow,  

DLR